Regional Weather Roundup
Issued by NWS

Home | Current Version | Previous Version | Text Only | Print | Product List | Glossary Off
Versions: 1 2 3 4 5 6 7 8 9 10 11 12 13 14 15 16 17 18 19 20 21 22 23 24 25 26 27 28 29 30 31 32 33 34 35 36 37 38 39 40 41 42 43 44 45 46 47 48 49 50

000
ASUS43 KDTX 280701
RWRMI
MICHIGAN HOURLY REGIONAL WEATHER ROUNDUP
NATIONAL WEATHER SERVICE DETROIT/PONTIAC MI
300 AM EDT FRI AUG 28 2015

NOTE: "FAIR" INDICATES FEW OR NO CLOUDS BELOW 12,000 FEET WITH NO
SIGNIFICANT WEATHER AND/OR OBSTRUCTION TO VISIBILITY.

MIZ047>049-052>055-059>063-066>070-074>076-081>083-280800-
SOUTHEAST LOWER MICHIGAN

CITY           SKY/WX    TMP DP  RH WIND       PRES   REMARKS
ADRIAN         CLEAR     48  47  96 NW5       30.18S FOG
ALMA           FOG       49  48  99 CALM      30.16F VSB 1/2
ANN ARBOR      FOG       46  45  96 CALM      30.17S VSB 1/4
BAD AXE        CLEAR     48  47  99 CALM      30.16F FOG
CARO           CLEAR     48  48  99 CALM      30.16S FOG
DETROIT CITY   CLEAR     54  51  90 CALM      30.17F
DETROIT        CLEAR     56  52  86 CALM      30.17F
FLINT          FOG       50  47  89 CALM      30.18R VSB 3/4
GROSSE ILE     CLEAR     61  54  77 CALM      30.15S
HILLSDALE      FOG       53  53 100 CALM      30.18R VSB 1
HOWELL         CLEAR     50  49  97 CALM      30.17S

CITY           SKY/WX    TMP DP  RH WIND       PRES   REMARKS
JACKSON        CLEAR     50  49  96 CALM      30.18R
LAMBERTVILLE   CLEAR     52  49  92 CALM      30.17S
LANSING        CLEAR     53  51  93 CALM      30.17F
LAPEER         FOG       45  45 100 CALM      30.18S VSB 1/2
MASON          MOCLDY    47  46  98 CALM      30.17S FOG
MONROE         CLEAR     51  50  95 CALM      30.16S
MT. CLEMENS    CLEAR     51  50  96 W2        30.15S
PONTIAC        CLEAR     49  48  97 CALM      30.17S FOG
PORT HOPE        N/A     55  53  93 SW6       30.14F
PORT HURON     FOG       46  46 100 CALM      30.17S VSB 1/2
TRI CITIES     MOCLDY    57  53  86 S6        30.17S
MIDLAND        CLOUDY    53  52  97 CALM      30.15S
TROY           CLEAR     55  52  90 CALM      30.18S
SAGINAW HB     PTCLDY    52  50  93 CALM      30.16S
$$
MIZ043>046-050>051-056>058-064>065-071>073-077>080-280800-
SOUTHWEST LOWER MICHIGAN

CITY           SKY/WX    TMP DP  RH WIND       PRES   REMARKS
BATTLE CREEK   PTCLDY    56  52  86 S6        30.17F
BENTON HARBOR  MOCLDY    58  55  90 SE7       30.14F
BIG RAPIDS     CLOUDY    53  52  97 CALM      30.14S FOG
COLDWATER      CLEAR     53  53 100 SE3       30.17F
FREMONT        FAIR      51  51 100 CALM      30.15R FOG
HOLLAND        CLEAR     54  52  93 CALM      30.16R
GRAND RAPIDS   CLEAR     53  52  96 CALM      30.16F
IONIA          FAIR      50  50  99 S5        30.15F
KALAMAZOO      PTCLDY    57  53  86 SE3       30.16F
LUDINGTON      CLEAR     55  53  92 CALM      30.13S FOG
MARSHALL       CLOUDY    56  53  91 CALM      30.17S
MOUNT PLEASANT CLEAR     58  55  88 CALM      30.15F
MUSKEGON       CLEAR     55  52  89 CALM      30.15R
SOUTH HAVEN    CLEAR     55  54  95 CALM      30.15S
$$
MIZ016>042-280800-
NORTHERN LOWER MICHIGAN

CITY           SKY/WX    TMP DP  RH WIND       PRES   REMARKS
ALPENA         CLEAR     47  44  90 CALM      30.13S
BEAVER ISLAND  CLEAR     61  59  93 SW8       30.08S
BELLAIRE       CLEAR     50  49  96 CALM      30.11F FOG
CADILLAC       FOG       50  48  94 CALM      30.13S VSB 1/4
CHARLEVOIX     CLEAR     56  56  97 SE3       30.12F
FRANKFORT      PTCLDY    55  54  97 CALM      30.11S FOG
GAYLORD        PTCLDY    54  52  93 CALM      30.12F
GRAYLING       FOG       49  48  95 CALM      30.14S VSB 1/2
HARBOR SPRINGS CLEAR     52  51  97 CALM      30.09F
HOUGHTON LAKE  FOG       53  53 100 SE3       30.14F VSB 1/2
MANISTEE         N/A     54  50  87 CALM      30.13S VSB 3/4
OSCODA         CLEAR     54  53  98 SW7       30.13S
PELLSTON       CLOUDY    47  46  97 CALM      30.09F FOG
ROGERS CITY    CLEAR     55  53  94 S5        30.12F
TRAVERSE CITY  PTCLDY    57  54  89 CALM      30.10F
$$
MIZ007>008-015-280800-
EASTERN UPPER MICHIGAN

CITY           SKY/WX    TMP DP  RH WIND       PRES   REMARKS
KINROSS        CLEAR     54  54 100 S6        30.08F
MACKINAC ISLAN PTCLDY    59  58  96 S6        30.08F
NEWBERRY       CLEAR     57  57  99 SW7       30.06F
S. S. MARIE    MOCLDY    55  52  89 E3        30.08F
$$
MIZ004>006-011>014-085-280800-
CENTRAL UPPER MICHIGAN

CITY           SKY/WX    TMP DP  RH WIND       PRES   REMARKS
MANISTIQUE     CLEAR     62  58  86 SW8       30.06S
ESCANABA       MOCLDY    61  57  88 SW6       30.05S
MENOMINEE      CLEAR     61  54  77 SW9       30.06S
SAWYER-GWINN   MOCLDY    57  55  94 S5        30.05F
$$
MIZ001>003-009>011-084-280800-
WESTERN UPPER MICHIGAN

CITY           SKY/WX    TMP DP  RH WIND       PRES   REMARKS
IRON MOUNTAIN  PTCLDY    56  55  97 SE3       30.05S
HOUGHTON       CLEAR     53  51  93 CALM      29.99F
COPPER HARBOR    N/A     60  51  72 VRB5      29.97F
IRONWOOD       PTCLDY    63  57  82 SW8       29.99S
$$

ABBREVIATIONS USED IN REMARKS
   TC - TEMPERATURE IN CELSIUS
  WCI - WIND CHILL INDEX
   HX - HEAT INDEX
  VSB - VISIBILITY



USA.gov is the U.S. government's official web portal to all federal, state and local government web resources and services.